Regional Weather Roundup
Issued by NWS

Home | Current Version | Previous Version | Graphics & Text | Print | Product List | Glossary On
Versions: 1 2 3 4 5 6 7 8 9 10 11 12 13 14 15 16 17 18 19 20 21 22 23 24 25 26 27 28
000
ASUS45 KGTF 050910
RWRMT
MONTANA HOURLY WEATHER ROUNDUP
NATIONAL WEATHER SERVICE GREAT FALLS MT
300 AM MDT TUE MAY 05 2015

NOTE: "FAIR" INDICATES FEW OR NO CLOUDS BELOW 12000 FEET WITH NO
SIGNIFICANT WEATHER AND/OR OBSTRUCTIONS TO VISIBILITY.

MTZ001>007-043-051000-
WEST OF THE DIVIDE

CITY           SKY/WX    TMP DP  RH WIND       PRES   REMARKS
KALISPELL      PTSUNNY   45  37  73 NE3       29.80S
MISSOULA       PTCLDY    55  35  47 NW9       29.82F
BUTTE          PTCLDY    41  29  62 CALM      29.88S
DEER LODGE       N/A     45  30  57 NE5       29.87S
EUREKA           N/A     45  28  53 E3        29.77S
HAMILTON         N/A     50  36  57 S6        29.84R
LIBBY            N/A     43  30  61 CALM      29.79S
$$

MTZ008-052>055-051000-
SOUTHWEST MONTANA

CITY           SKY/WX    TMP DP  RH WIND       PRES   REMARKS
BOZEMAN        PTCLDY    47  36  65 SE8       29.83F
DILLON         CLEAR     50  32  50 S8        29.85F
$$

MTZ009-010-012-014-046-048-049-054-051000-
EAST SLOPES AND CENTRAL MONTANA

CITY           SKY/WX    TMP DP  RH WIND       PRES   REMARKS
CUT BANK       PTCLDY    48  24  39 W8        29.78S
GREAT FALLS    CLEAR     49  32  52 S8        29.77F
MALMSTROM AFB  CLEAR     47  28  46 S3        29.77F
HELENA         CLEAR     51  28  41 CALM      29.79F
$$

MTZ011-013-016-021-045-047-050-051-051000-
NORTH CENTRAL MONTANA

CITY           SKY/WX    TMP DP  RH WIND       PRES   REMARKS
HAVRE          CLEAR     42  36  79 W3        29.74S
LEWISTOWN      CLEAR     48  37  65 SE7       29.83S
CHINOOK          N/A     54  43  66 E9        29.75S
FORT BENTON      N/A     52  37  58 CALM      29.76F
$$

MTZ017>020-022>042-056>058-061-062-051000-
EASTERN PLAINS

CITY           SKY/WX    TMP DP  RH WIND       PRES   REMARKS
BAKER          CLEAR     45  32  60 SE15      29.98F
BILLINGS       PTCLDY    50  42  74 SW6       29.82F
GLASGOW        CLEAR     47  35  63 E14       29.84F
JORDAN           N/A     49  38  65 E6        29.84F
LIVINGSTON     CLEAR     40  35  83 CALM      29.87S
MILES CITY     CLEAR     51  35  54 SE18      29.88F
SIDNEY         CLEAR     46  28  49 S10       29.97S
WOLF POINT     CLEAR     50  34  54 SE6       29.89F
BIG TIMBER       N/A     48  39  71 CALM      29.86F
FORSYTH          N/A     52  37  58 E6        29.85F
PLENTYWOOD       N/A     45  32  61 SE10      29.94F
POPLAR           N/A     48  34  57 E13       29.90F
$$

REGIONAL REPORTS...DAKOTAS

CITY           SKY/WX    TMP DP  RH WIND       PRES   REMARKS
WILLISTON      CLEAR     51  29  42 S6        29.98F
MINOT          CLOUDY    55  29  36 SE8       30.05F
DICKINSON      CLOUDY    46  28  49 SE10      30.01F
BEACH          PTSUNNY   43  28  56 SE15      29.99S
CROSBY         FAIR      50  32  50 S16G23    29.97F
WATFORD CITY   FAIR      52  23  32 S15G25    29.98F
BISMARCK       CLOUDY    53  30  41 E7        30.09F
GRAND FORKS    CLEAR     40  25  55 S3        30.16F
FARGO          CLEAR     50  26  39 SE7       30.17F
BUFFALO SD       N/A     42  28  57 SE6       29.94F
RAPID CITY     CLEAR     43  34  70 S13       30.03F
$$

REGIONAL REPORTS...WYOMING/IDAHO/WASHINGTON

CITY           SKY/WX    TMP DP  RH WIND       PRES   REMARKS
GILLETTE       PTCLDY    45  35  68 S16       29.95F
SHERIDAN       PTCLDY    46  41  82 SW3       29.88S
BUFFALO WY     MOCLDY    48  42  80 SE17      29.91F
CODY           CLEAR     52  37  58 S13       29.89F
YELLOWSTONE LA   N/A     29  26  89 NW3       30.06F
IDAHO FALLS    MOCLDY    49  42  77 CALM      29.88F
SALMON           N/A     46  32  57 SW3       29.83S
BOISE          CLOUDY    63  38  39 S6        29.77F
SPOKANE        PTCLDY    48  31  51 S18G25    29.85R
$$

REGIONAL REPORTS...ALBERTA

CITY           SKY/WX    TMP DP  RH WIND       PRES   REMARKS
EDMONTON       CLEAR     45  30  57 E20G29    29.76F
CALGARY        PTCLDY    43  25  49 SW6       29.68S
LETHBRIDGE     CLEAR     37  28  70 SW7       29.71S
MEDICINE HAT   CLEAR     41  32  70 S3        29.69F
$$

REGIONAL REPORTS...SASKATCHEWAN

CITY           SKY/WX    TMP DP  RH WIND       PRES   REMARKS
SWIFT CURRENT  CLEAR     50  41  71 S17       29.76F
REGINA         MOCLDY    48  39  71 SE12      29.93F
SASKATOON      CLEAR     46  34  61 E12       29.86F
$$



USA.gov is the U.S. government's official web portal to all federal, state and local government web resources and services.